Location: Monteux
(44.0348°N, 4.9972°E)
Time: 23:02:09
(UTC+00:00)

Cosmos 2341 Rocket - Pass Details

Date: 22 April 2021
Orbit: 969 x 1003 km, 82.9° (Epoch: 14 May)

Event Time Altitude Azimuth Distance (km) Brightness Sun altitude
Rises 23:22:30 0° 359° (N) 3,719 8.1 -33.3°
Reaches altitude 10° 23:25:21 10° 10° (N) 2,771 7.2 -33.4°
Maximum altitude 23:30:58 32° 72° (ENE) 1,647 5.2 -33.4°
Enters shadow 23:31:01 32° 73° (ENE) 1,647 5.2 -33.4°
